sat.trackr.live / text

‹ back to catalog

LUDI TANCE 1-01B (L-SA*)

NORAD 51822 · 2022-018A

PAYLOAD ACTIVE UNKNOWN

§ Identity

Operator
Country
PRC
Launch date
2022-02-26
Launch site
JSC
Launch vehicle
Mass (kg)
RCS (m²)

External: N2YO · Heavens-Above · Gunter

§ Orbital elements

Epoch: 2026-09-20T22:42:03.937824Z

Period
96.75 min
Inclination
97.8113°
Eccentricity
0.0001549
Mean motion
14.88420416 rev/d
Perigee alt
601.8 km
Apogee alt
604.0 km
Semi-major
6,981.0 km
B*
4.0597e-5
RAAN
270.0105°
Arg perigee
87.9736°
Mean anomaly
272.1658°
Rev number
24,795

§ Raw data

LUDI TANCE 1-01B (L-SA*)1 51822U 22018A   26263.94587891  .00000322  00000+0  40597-4 0  99962 51822  97.8113 270.0105 0001549  87.9736 272.1658 14.88420416247959

JSON: /api/v1/satellites/51822 · /tle

For live sub-satellite position, see the globe view (requires WebGL).

§ Visibility from observer

Set your observer location to see the next 7 days of passes ≥ 10°. The values pass through the URL so the page stays shareable.

No JS? Fill the form by hand. The geolocation button needs JavaScript.

§ Radio — SatNOGS DB

ModeDescriptionDownlinkUplink
FM S-band telemetry 2.219 GHz

1 transmitter · refreshed weekly from db.satnogs.org